Weather in Dolishny Shopot

Ukraine / Chernovtci District     48°00′44″N   25°17′16″E
В апреле 2022 года жителям России запретили посещать сайт meteo.paraplan.net по решению Генеральной прокуратуры. Аудитория сайта уменьшилась в 10 раз. Владельцы сайта не видят смысла в поддержке погодного сервера в таких условиях. Сайт будет закрыт в октябре.
temp.,
°C
wind,
m/s
gust,
m/s
humid.,
%
clouds,
%
prec.,
mm/h
press.,
hPa
HPBL,
m
30 september, fri
fri3000:00+8ssw229344 0.0 101034
03:00+8ssw229182 0.0 101127
06:00+8ssw22896 0.0 101142
09:00+11ssw1278100 0.0 101279
12:00+17sse2356100 0.0 1012814
15:00+15sw267143 0.4 1013350
18:00+16ssw126522 0.0 101350
21:00+11ssw228598 0.0 101531
1 october, sat
sat100:00+10ssw339224 0.0 101773
03:00+10ssw3589100 0.0 1017139
06:00+9ssw3391100 0.0 101750
09:00+12s2482100 0.0 101796
12:00+19sw3952100 0.0 10161686
15:00+20wsw4945100 0.0 10141988
18:00+16sw1267100 0.0 101446
21:00+12ssw2281100 0.0 101314
2 october, sun
sun200:00+11sw2186100 0.0 101217
03:00+12ssw3991100 3.2 1010409
06:00+10wsw2792100 0.2 1010257
09:00+8nne3698100 2.3 1012484
12:00+7wnw259495 7.8 1014331
15:00+9nw2781100 8.0 1013705
18:00+9nw267896 0.3 1014445
21:00+5w229316 0.6 101643
3 october, mon
mon300:00+6wsw23925 0.1 1016128
03:00+6w258995 0.1 1016260
06:00+6wsw239054 0.0 1016112
09:00+7wsw1388100 0.5 1016448
12:00+8w258172 0.9 1017869
15:00+10wnw476799 1.3 10161508
18:00+8wnw248443 0.7 1017290
21:00+6sw229167 0.8 101942
4 october, tue
tue400:00+4sw2295100 0.0 102048
03:00+6wsw3885100 0.0 1018358
06:00+6wsw3882100 0.0 1017369
09:00+7wsw3780100 0.0 1017662
12:00+9wsw3575100 0.1 1017879
15:00+7wsw2388100 0.8 1018298
18:00+7w138541 0.2 1018312
21:00+5wsw119260 0.2 102118